FW5989 Weather Reports


time (UTC)temp
F
wind
direction
speed
knots
gust
knots
rain 1hr
in
rain 24hr
in
rain mn
in
humidity
%
barometer
mb
20260507074522 0 0.0 0.0 0.00 0.43 0.00 1005.9
20260507073002 0 0.0 0.0 0.00 0.43 0.00 1005.7
20260507071609 0 0.0 0.0 0.00 0.43 0.00 1005.9
20260507070052 0 0.0 0.0 0.00 0.43 0.00 1005.5
20260507064552 0 0.0 0.0 0.00 0.43 0.00 1005.3
20260507063042 0 0.0 0.0 0.00 0.43 0.00 1004.9
20260507061538 0 0.0 0.0 0.00 0.43 0.00 1004.7
20260507060031 0 0.0 0.0 0.00 0.43 0.00 1004.8
20260507054526 0 0.0 0.0 0.00 0.43 0.00 1004.7
20260507053020 0 0.0 0.0 0.00 0.43 0.00 1004.6
20260507051516 0 0.0 0.0 0.00 0.43 0.00 1004.3
20260507050011 0 0.0 0.0 0.00 0.43 0.00 1004.6
20260507044505 0 0.0 0.0 0.00 0.43 0.00 1004.8
20260507043001 0 0.0 0.0 0.00 0.43 0.00 1004.9
20260507041602 0 0.0 0.0 0.00 0.43 0.00 1004.8
20260507040059 0 0.0 0.0 0.00 0.43 0.00 1005.1
20260507034556 0 0.0 0.0 0.00 0.43 0.43 1004.7
20260507033048 0 0.0 0.0 0.00 0.43 0.43 1004.8
20260507031546 0 0.0 0.0 0.00 0.43 0.43 1004.4
20260507030048 0 0.0 0.0 0.00 0.43 0.43 1004.3
20260507024544 0 0.0 0.0 0.00 0.43 0.43 1003.9
20260507023043 0 0.0 0.0 0.00 0.43 0.43 1004.3
20260507021545 0 0.0 0.0 0.00 0.43 0.43 1003.8
20260507020038 0 0.0 0.0 0.00 0.43 0.43 1004.0
20260507014534 0 0.0 0.0 0.00 0.43 0.43 1004.0
20260507013035 0 0.0 0.0 0.00 0.43 0.43 1003.9
20260507011535 0 0.0 0.0 0.00 0.43 0.43 1004.2
20260507010018 0 0.0 0.0 0.00 0.43 0.43 1004.0
20260507004517 0 0.0 0.0 0.01 0.43 0.43 1003.9
20260507003009 0 150 2.6 7.8 0.01 0.43 0.43 1003.3
20260507001504 56 157 4.3 7.8 0.03 0.43 0.43 98 1003.3
20260507000003 56 158 2.6 7.8 0.03 0.44 0.43 98 1003.3
20260506234504 56 150 3.5 7.8 0.05 0.43 0.42 98 1003.3
20260506233059 56 171 2.6 7.8 0.08 0.43 0.42 98 1003.2
20260506231557 56 188 3.5 7.0 0.08 0.41 0.40 98 1003.3
20260506230054 56 145 2.6 5.2 0.09 0.41 0.40 98 1003.5
20260506224550 57 131 1.7 5.2 0.07 0.40 0.38 97 1003.5
20260506223046 57 151 0.9 4.3 0.04 0.36 0.34 97 1003.7
20260506221544 58 129 2.6 5.2 0.01 0.33 0.31 97 1003.9
20260506220051 58 143 1.7 4.3 0.02 0.33 0.31 97 1004.1
20260506214539 58 150 0.9 5.2 0.03 0.33 0.31 97 1004.3
20260506213035 58 144 1.7 5.2 0.04 0.32 0.30 97 1004.3
20260506211536 58 234 1.7 7.0 0.06 0.32 0.30 97 1004.4
20260506210031 57 150 2.6 7.0 0.06 0.31 0.28 97 1004.5
20260506204530 57 163 1.7 5.2 0.07 0.30 0.28 97 1004.4
20260506203034 57 192 1.7 5.2 0.07 0.28 0.26 97 1004.2
20260506201524 57 141 1.7 5.2 0.06 0.26 0.24 97 1004.3
20260506200025 57 150 1.7 4.3 0.06 0.24 0.22 97 1004.6
20260506194518 57 123 1.7 6.1 0.08 0.23 0.21 96 1004.9
20260506193017 57 136 0.9 3.5 0.08 0.21 0.19 96 1004.9
20260506191517 57 129 1.7 4.3 0.10 0.20 0.18 96 1004.9
20260506190010 57 148 0.9 4.3 0.10 0.18 0.16 95 1005.1
20260506184508 57 141 1.7 3.5 0.11 0.15 0.13 95 1005.1
20260506183009 57 123 0.9 3.5 0.08 0.12 0.10 94 1005.2
20260506181503 58 133 0.9 2.6 0.06 0.10 0.08 93 1005.5
20260506180101 58 98 0.9 5.2 0.04 0.08 0.06 92 1005.2
20260506180002 58 129 1.7 5.2 0.04 0.08 0.06 91 1005.2
20260506174608 60 134 0.0 3.5 0.01 0.04 0.02 90 1005.2
20260506173057 60 139 0.0 1.7 0.01 0.04 0.02 91 1005.4
20260506171557 60 95 0.0 1.7 0.01 0.04 0.02 90 1005.8
20260506170048 60 137 0.9 2.6 0.02 0.04 0.02 90 1006.1
20260506164547 60 172 1.7 5.2 0.01 0.03 0.01 89 1006.5
20260506163055 60 146 0.9 3.5 0.01 0.03 0.01 89 1006.7
20260506161538 59 191 0.9 3.5 0.01 0.03 0.01 88 1007.0
20260506160036 59 158 0.0 3.5 0.00 0.02 0.00 87 1007.2
20260506154537 60 193 0.9 3.5 0.00 0.02 0.00 83 1007.5
20260506153032 60 120 0.0 4.3 0.00 0.02 0.00 83 1007.5
20260506151537 60 216 0.9 4.3 0.00 0.02 0.00 83 1007.3
20260506150026 60 160 0.9 3.5 0.00 0.02 0.00 83 1007.3
20260506144523 60 128 1.7 6.1 0.00 0.02 0.00 82 1007.3
20260506143021 59 158 0.9 4.3 0.00 0.02 0.00 83 1007.2
20260506141517 59 160 0.0 2.6 0.00 0.02 0.00 84 1007.2
20260506140022 58 152 0.9 4.3 0.00 0.02 0.00 84 1007.5
20260506134512 58 191 0.9 2.6 0.00 0.02 0.00 84 1007.6
20260506133011 58 181 0.9 1.7 0.00 0.02 0.00 82 1007.6
20260506131517 58 198 0.0 0.9 0.00 0.02 0.00 83 1007.5
20260506130006 58 171 0.0 1.7 0.00 0.02 0.00 81 1007.6
20260506124504 59 191 0.0 1.7 0.00 0.02 0.00 82 1007.8
20260506123007 58 89 0.0 1.7 0.00 0.02 0.00 82 1007.8
20260506121613 58 103 0.0 1.7 0.00 0.02 0.00 84 1007.9
20260506120056 58 148 0.0 1.7 0.00 0.02 0.00 85 1008.0
20260506114557 57 121 0.0 3.5 0.00 0.02 0.00 86 1008.2
20260506113154 58 207 0.9 1.7 0.00 0.02 0.00 85 1008.2
20260506111551 57 163 0.9 2.6 0.00 0.02 0.00 85 1008.1
20260506110045 56 84 0.0 3.5 0.00 0.02 0.00 87 1008.2
20260506104547 55 84 0.9 3.5 0.00 0.02 0.00 87 1008.2
20260506103039 55 102 0.9 5.2 0.00 0.02 0.00 88 1008.1
20260506101533 0 0.0 0.0 0.00 0.02 0.00 1008.1
20260506100045 0 0.0 0.0 0.00 0.02 0.00 1008.1